{"data":{"norad_id":60109,"intl_designator":"2024-117U","name":"STARLINK-32040","alt_names":[],"object_type":"PAYLOAD","status":"ACTIVE","operator":null,"country":"US","launch_date":"2024-06-23","launch_site_code":"AFETR","launch_vehicle":null,"mission":null,"orbit_class":"UNKNOWN","rcs_meters":null,"size_class":null,"mass_kg":null,"dimensions":null,"purposes":["comms"],"wikipedia_slug":null,"has_3d_model":false,"image_url":null,"decayed_at":null,"tle_current":{"epoch":"2026-09-21T13:31:25.133376Z","epoch_age_seconds":85456,"freshness":"FRESH","line1":"1 60109U 24117U   26264.56348534 -.00001204  00000+0 -24512-4 0  9995","line2":"2 60109  53.1585 204.6188 0001366  87.7069 272.4090 15.34389036126912","mean_motion":15.34389036,"eccentricity":0.0001366,"inclination_deg":53.1585,"raan_deg":204.6188,"arg_perigee_deg":87.7069,"mean_anomaly_deg":272.409,"bstar":-2.4512e-5,"rev_number":12691,"period_min":93.848428671906,"perigee_km":461.80136449144,"apogee_km":463.67029094797,"semimajor_km":6840.8728277197,"source":"CELESTRAK","updated_at":"2026-09-22T09:00:49.153339Z"}}}